Location: ????????
(55.3939°N, 37.4780°E)
Time: 05:33:14
(UTC+00:00)

Cosmos 1943 Rocket - Pass Details

Date: 14 April 2026
Orbit: 809 x 844 km, 71.0° (Epoch: 10 May)

Event Time Altitude Azimuth Distance (km) Brightness Sun altitude
Rises 17:20:26 0° 325° (NW) 3,414 6.6 -7.0°
Reaches altitude 10° 17:22:54 10° 326° (NW) 2,477 5.8 -7.3°
Maximum altitude 17:28:37 90° 40° (NE) 852 2.3 -8.0°
Drops below altitude 10° 17:34:17 10° 148° (SSE) 2,457 4.1 -8.7°
Enters shadow 17:34:52 - 148° (SSE) 2,680 4.3 -8.8°
